Previsão horária em Ablovo

Hoje, 18 Maio, Terça-feira

Tempo Temperatura Precipitação Vento Pressão Humidade
00:00 +18°C° 0 mm 4 m/s 748 mmHg 78%
01:00 +17°C° 0 mm 4 m/s 748 mmHg 75%
02:00 +17°C° 0 mm 4 m/s 748 mmHg 73%
03:00 +17°C° 0 mm 4 m/s 748 mmHg 70%
04:00 +17°C° 0 mm 4 m/s 747 mmHg 70%
05:00 +17°C° 0 mm 4 m/s 747 mmHg 70%
06:00 +17°C° 0 mm 4 m/s 747 mmHg 70%
07:00 +19°C° 0 mm 4 m/s 747 mmHg 66%
08:00 +20°C° 0 mm 5 m/s 748 mmHg 63%
09:00 +22°C° 0 mm 5 m/s 748 mmHg 59%
10:00 +25°C° 0 mm 5 m/s 748 mmHg 55%
11:00 +26°C° 0 mm 5 m/s 747 mmHg 51%
12:00 +27°C° 0 mm 5 m/s 747 mmHg 47%
13:00 +28°C° 0 mm 5 m/s 747 mmHg 47%
14:00 +28°C° 0 mm 5 m/s 747 mmHg 47%
15:00 +29°C° 0 mm 6 m/s 746 mmHg 47%
16:00 +28°C° 0 mm 6 m/s 746 mmHg 51%
17:00 +27°C° 0 mm 6 m/s 746 mmHg 54%
18:00 +26°C° 0 mm 6 m/s 746 mmHg 58%
19:00 +24°C° 0 mm 6 m/s 746 mmHg 62%
20:00 +22°C° 0 mm 5 m/s 746 mmHg 65%
21:00 +21°C° 0 mm 5 m/s 746 mmHg 69%
22:00 +20°C° 0 mm 4 m/s 746 mmHg 71%
23:00 +19°C° 0 mm 4 m/s 746 mmHg 74%

Amanhã, 19 Maio, Quarta-feira

Tempo Temperatura Precipitação Vento Pressão Humidade
00:00 +18°C° 0 mm 3 m/s 746 mmHg 76%
01:00 +17°C° 0 mm 3 m/s 746 mmHg 79%
02:00 +16°C° 0 mm 3 m/s 746 mmHg 82%
03:00 +16°C° 0 mm 2 m/s 746 mmHg 86%
04:00 +16°C° 0 mm 2 m/s 746 mmHg 84%
05:00 +16°C° 0 mm 3 m/s 746 mmHg 83%
06:00 +17°C° 0 mm 3 m/s 746 mmHg 82%
07:00 +18°C° 0 mm 3 m/s 746 mmHg 76%
08:00 +20°C° 0 mm 4 m/s 746 mmHg 69%
09:00 +21°C° 0 mm 4 m/s 746 mmHg 63%
10:00 +22°C° 0 mm 4 m/s 746 mmHg 60%
11:00 +23°C° 0 mm 4 m/s 746 mmHg 58%
12:00 +25°C° 0 mm 4 m/s 746 mmHg 55%
13:00 +26°C° 0 mm 5 m/s 746 mmHg 56%
14:00 +26°C° 0 mm 5 m/s 746 mmHg 57%
15:00 +27°C° 0 mm 5 m/s 746 mmHg 58%
16:00 +26°C° 0 mm 5 m/s 746 mmHg 61%
17:00 +26°C° 0 mm 5 m/s 745 mmHg 64%
18:00 +25°C° 0 mm 4 m/s 745 mmHg 66%
19:00 +23°C° 0.4 mm 4 m/s 745 mmHg 73%
20:00 +21°C° 0.4 mm 3 m/s 745 mmHg 79%
21:00 +20°C° 0.4 mm 3 m/s 745 mmHg 85%
22:00 +20°C° 0.6 mm 3 m/s 745 mmHg 84%
23:00 +19°C° 0.6 mm 4 m/s 745 mmHg 82%

Depois de amanhã, 20 Maio, Quinta-feira

Tempo Temperatura Precipitação Vento Pressão Humidade
00:00 +19°C° 0.6 mm 4 m/s 745 mmHg 80%
01:00 +19°C° 0 mm 4 m/s 745 mmHg 81%
02:00 +18°C° 0 mm 4 m/s 744 mmHg 82%
03:00 +18°C° 0 mm 4 m/s 744 mmHg 82%
04:00 +18°C° 0.2 mm 4 m/s 744 mmHg 84%
05:00 +17°C° 0.2 mm 4 m/s 744 mmHg 87%
06:00 +17°C° 0.2 mm 4 m/s 745 mmHg 89%
07:00 +18°C° 0.1 mm 4 m/s 745 mmHg 86%
08:00 +19°C° 0.1 mm 4 m/s 745 mmHg 84%
09:00 +19°C° 0.1 mm 4 m/s 744 mmHg 81%
10:00 +17°C° 1.7 mm 5 m/s 744 mmHg 85%
11:00 +16°C° 1.7 mm 5 m/s 744 mmHg 88%
12:00 +15°C° 1.7 mm 5 m/s 745 mmHg 92%
13:00 +16°C° 0.1 mm 5 m/s 745 mmHg 84%
14:00 +19°C° 0.1 mm 5 m/s 745 mmHg 76%
15:00 +20°C° 0.1 mm 5 m/s 745 mmHg 67%
16:00 +19°C° 0.2 mm 5 m/s 745 mmHg 72%
17:00 +19°C° 0.2 mm 4 m/s 744 mmHg 76%
18:00 +18°C° 0.2 mm 4 m/s 744 mmHg 80%
19:00 +17°C° 0.3 mm 4 m/s 744 mmHg 85%
20:00 +16°C° 0.3 mm 3 m/s 744 mmHg 89%
21:00 +13°C° 0.3 mm 3 m/s 744 mmHg 94%
22:00 +13°C° 0 mm 3 m/s 744 mmHg 94%
23:00 +13°C° 0 mm 4 m/s 744 mmHg 94%

21 Maio, Sexta-feira

Tempo Temperatura Precipitação Vento Pressão Humidade
00:00 +13°C° 0 mm 4 m/s 744 mmHg 94%
01:00 +12°C° 0 mm 4 m/s 744 mmHg 93%
02:00 +11°C° 0 mm 4 m/s 744 mmHg 92%
03:00 +11°C° 0 mm 4 m/s 745 mmHg 92%
04:00 +11°C° 0 mm 4 m/s 745 mmHg 91%
05:00 +11°C° 0 mm 4 m/s 745 mmHg 90%
06:00 +11°C° 0 mm 4 m/s 745 mmHg 89%
07:00 +10°C° 0 mm 5 m/s 745 mmHg 88%
08:00 +12°C° 0 mm 5 m/s 745 mmHg 87%
09:00 +13°C° 0 mm 6 m/s 745 mmHg 87%
10:00 +14°C° 0 mm 6 m/s 746 mmHg 80%
11:00 +14°C° 0 mm 6 m/s 746 mmHg 74%
12:00 +15°C° 0 mm 6 m/s 746 mmHg 68%
13:00 +15°C° 0.3 mm 7 m/s 746 mmHg 69%
14:00 +16°C° 0.3 mm 8 m/s 746 mmHg 70%
15:00 +16°C° 0.3 mm 8 m/s 746 mmHg 71%
16:00 +15°C° 0.1 mm 7 m/s 746 mmHg 71%
17:00 +14°C° 0.1 mm 7 m/s 746 mmHg 72%
18:00 +13°C° 0.1 mm 6 m/s 747 mmHg 73%
19:00 +11°C° 0 mm 6 m/s 747 mmHg 75%
20:00 +10°C° 0 mm 6 m/s 747 mmHg 78%
21:00 +9°C° 0 mm 6 m/s 748 mmHg 80%
22:00 +9°C° 0 mm 6 m/s 748 mmHg 81%
23:00 +8°C° 0 mm 6 m/s 748 mmHg 82%

22 Maio, Sábado

Tempo Temperatura Precipitação Vento Pressão Humidade
00:00 +8°C° 0 mm 6 m/s 748 mmHg 83%
01:00 +8°C° 0 mm 6 m/s 749 mmHg 84%
02:00 +8°C° 0 mm 5 m/s 749 mmHg 85%
03:00 +8°C° 0 mm 5 m/s 750 mmHg 86%
04:00 +8°C° 0 mm 4 m/s 750 mmHg 86%
05:00 +8°C° 0 mm 4 m/s 750 mmHg 87%
06:00 +9°C° 0 mm 3 m/s 751 mmHg 88%
07:00 +11°C° 0 mm 3 m/s 751 mmHg 81%
08:00 +12°C° 0 mm 3 m/s 751 mmHg 75%
09:00 +14°C° 0 mm 3 m/s 751 mmHg 68%
10:00 +14°C° 0 mm 3 m/s 751 mmHg 66%
11:00 +16°C° 0 mm 3 m/s 752 mmHg 63%
12:00 +16°C° 0 mm 3 m/s 752 mmHg 60%
13:00 +17°C° 0 mm 3 m/s 752 mmHg 57%
14:00 +18°C° 0 mm 3 m/s 752 mmHg 54%
15:00 +19°C° 0 mm 3 m/s 752 mmHg 51%
16:00 +18°C° 0 mm 3 m/s 752 mmHg 54%
17:00 +18°C° 0 mm 3 m/s 752 mmHg 58%
18:00 +18°C° 0 mm 3 m/s 752 mmHg 61%
19:00 +16°C° 0 mm 2 m/s 752 mmHg 66%
20:00 +14°C° 0 mm 2 m/s 752 mmHg 72%
21:00 +13°C° 0 mm 2 m/s 752 mmHg 77%
22:00 +12°C° 0 mm 2 m/s 752 mmHg 80%
23:00 +10°C° 0 mm 2 m/s 753 mmHg 82%

23 Maio, Domingo

Tempo Temperatura Precipitação Vento Pressão Humidade
00:00 +9°C° 0 mm 2 m/s 753 mmHg 85%
01:00 +8°C° 0 mm 2 m/s 753 mmHg 85%
02:00 +9°C° 0 mm 1 m/s 754 mmHg 86%
03:00 +9°C° 0 mm 1 m/s 754 mmHg 87%
04:00 +9°C° 0 mm 1 m/s 754 mmHg 83%
05:00 +10°C° 0 mm 1 m/s 755 mmHg 80%
06:00 +10°C° 0 mm 1 m/s 755 mmHg 77%
07:00 +12°C° 0 mm 2 m/s 755 mmHg 69%
08:00 +14°C° 0 mm 2 m/s 755 mmHg 61%
09:00 +16°C° 0 mm 2 m/s 755 mmHg 53%
10:00 +17°C° 0 mm 2 m/s 755 mmHg 49%
11:00 +18°C° 0 mm 2 m/s 755 mmHg 45%
12:00 +19°C° 0 mm 2 m/s 754 mmHg 42%
13:00 +20°C° 0 mm 2 m/s 754 mmHg 41%
14:00 +20°C° 0 mm 3 m/s 754 mmHg 40%
15:00 +21°C° 0 mm 3 m/s 754 mmHg 39%
16:00 +20°C° 0 mm 3 m/s 754 mmHg 45%
17:00 +20°C° 0 mm 3 m/s 753 mmHg 50%
18:00 +20°C° 0 mm 3 m/s 753 mmHg 56%
19:00 +18°C° 0 mm 3 m/s 753 mmHg 60%
20:00 +16°C° 0 mm 3 m/s 753 mmHg 64%
21:00 +13°C° 0 mm 3 m/s 753 mmHg 69%
22:00 +12°C° 0 mm 3 m/s 753 mmHg 72%
23:00 +12°C° 0 mm 3 m/s 753 mmHg 75%
Mostrar mais

Necessitamos do seu Consentimento

A Meteoprog e os seus Fornecedores de Serviços podem armazenar e aceder a dados pessoais como cookies, identificadores do dispositivo ou outras tecnologias semelhantes existentes no seu dispositivo e processar estes dados para personalizar conteúdos e anúncios, assim como funcionalidades nas redes sociais e análise de tráfego.

  • Armazenar e/ou aceder a informações no seu dispositivo

    Os cookies, identificadores do dispositivo ou outras informações podem ser armazenados ou acedidos no seu dispositivo, para os fins acima indicados.

  • Anúncios e conteúdos personalizados, medição de anúncios e conteúdos, dados sobre o público-alvo e desenvolvimento de produtos

    Os anúncios e os conteúdos podem ser personalizados com base num perfil. Podem ser adicionados dados adicionais para uma maior personalização dos anúncios e dos conteúdos. A eficácia dos anúncios e dos conteúdos pode ser medida. Podem ser obtidas informações sobre o público que visualizou os anúncios e os conteúdos. Estes dados podem ser usados para desenvolver ou melhorar sistemas, softwares ou a experiência do utilizador.

Ao clicar em "Eu concordo”, permitirá o uso de cookies, identificadores do dispositivo e web beacons mencionados ou outras tecnologias semelhantes. As configurações do navegador do seu dispositivo podem ser alteradas.

Para certos fins, podem ser invocados interesses legítimos ao invés de consentimento. Pode ler mais informação sobre este assunto na nossa Política de Privacidade e Cookies.